| time (UTC) | temp F | wind direction | speed MPH | gust MPH | rain 1hr in | rain 24hr in | rain mn in | humidity % | barometer mb |
| 20260507040051 | 43 | 0 | 1.0 | 7.0 | 0.00 | 0.58 | 0.00 | 95 | 1011.1 |
| 20260507034552 | 43 | 242 | 3.0 | 7.0 | 0.00 | 0.58 | 0.58 | 95 | 1010.5 |
| 20260507033055 | 43 | 246 | 1.0 | 4.0 | 0.00 | 0.58 | 0.58 | 96 | 1010.7 |
| 20260507031556 | 44 | 0 | 0.0 | 3.0 | 0.00 | 0.58 | 0.58 | 96 | 1010.6 |
| 20260507030056 | 44 | 160 | 1.0 | 3.0 | 0.00 | 0.58 | 0.58 | 96 | 1011.0 |
| 20260507024603 | 43 | 0 | 0.0 | 2.0 | 0.00 | 0.58 | 0.58 | 96 | 1010.8 |
| 20260507023059 | 43 | 236 | 0.0 | 2.0 | 0.00 | 0.58 | 0.58 | 96 | 1010.9 |
| 20260507021558 | 42 | 0 | 0.0 | 1.0 | 0.00 | 0.58 | 0.58 | 96 | 1010.8 |
| 20260507020057 | 42 | 0 | 0.0 | 1.0 | 0.00 | 0.58 | 0.58 | 96 | 1011.0 |
| 20260507014612 | 42 | 0 | 0.0 | 0.0 | 0.00 | 0.58 | 0.58 | 96 | 1011.2 |
| 20260507013056 | 42 | 0 | 0.0 | 0.0 | 0.00 | 0.58 | 0.58 | 96 | 1011.2 |
| 20260507011603 | 42 | 0 | 0.0 | 0.0 | 0.00 | 0.58 | 0.58 | 95 | 1011.0 |
| 20260507010112 | 42 | 0 | 0.0 | 0.0 | 0.00 | 0.58 | 0.58 | 96 | 1010.9 |
| 20260507004615 | 42 | 0 | 0.0 | 0.0 | 0.00 | 0.58 | 0.58 | 96 | 1010.6 |
| 20260507003059 | 42 | 0 | 0.0 | 0.0 | 0.00 | 0.58 | 0.58 | 96 | 1010.6 |
| 20260507001557 | 42 | 0 | 0.0 | 0.0 | 0.00 | 0.58 | 0.58 | 95 | 1010.7 |
| 20260507000051 | 43 | 0 | 0.0 | 2.0 | 0.00 | 0.58 | 0.58 | 96 | 1010.4 |
| 20260506234557 | 43 | 0 | 0.0 | 1.0 | 0.00 | 0.58 | 0.58 | 96 | 1010.4 |
| 20260506233058 | 43 | 0 | 0.0 | 1.0 | 0.00 | 0.58 | 0.58 | 96 | 1010.3 |
| 20260506231558 | 42 | 0 | 0.0 | 1.0 | 0.00 | 0.58 | 0.58 | 96 | 1010.1 |
| 20260506230053 | 42 | 0 | 0.0 | 1.0 | 0.00 | 0.58 | 0.58 | 96 | 1010.1 |
| 20260506224549 | 42 | 0 | 0.0 | 4.0 | 0.00 | 0.58 | 0.58 | 96 | 1009.9 |
| 20260506223052 | 42 | 244 | 0.0 | 4.0 | 0.00 | 0.58 | 0.58 | 96 | 1009.9 |
| 20260506221549 | 42 | 0 | 0.0 | 5.0 | 0.00 | 0.58 | 0.58 | 96 | 1009.8 |
| 20260506220056 | 42 | 0 | 1.0 | 6.0 | 0.00 | 0.58 | 0.58 | 96 | 1010.0 |
| 20260506214600 | 42 | 264 | 1.0 | 5.0 | 0.00 | 0.58 | 0.58 | 96 | 1009.6 |
| 20260506213053 | 42 | 235 | 3.0 | 7.0 | 0.00 | 0.58 | 0.58 | 96 | 1009.8 |
| 20260506211603 | 42 | 224 | 2.0 | 8.0 | 0.00 | 0.58 | 0.58 | 96 | 1009.5 |
| 20260506210051 | 42 | 0 | 4.0 | 11.0 | 0.00 | 0.58 | 0.58 | 96 | 1009.5 |
| 20260506204552 | 43 | 256 | 4.0 | 11.0 | 0.00 | 0.58 | 0.58 | 96 | 1009.2 |
| 20260506203052 | 43 | 249 | 3.0 | 9.0 | 0.00 | 0.58 | 0.58 | 95 | 1008.9 |
| 20260506201549 | 43 | 226 | 4.0 | 12.0 | 0.01 | 0.58 | 0.58 | 95 | 1008.8 |
| 20260506194605 | 43 | 255 | 3.0 | 13.0 | 0.03 | 0.61 | 0.58 | 96 | 1008.5 |
| 20260506193056 | 43 | 262 | 3.0 | 11.0 | 0.03 | 0.61 | 0.58 | 96 | 1008.6 |
| 20260506191605 | 44 | 0 | 3.0 | 13.0 | 0.02 | 0.60 | 0.57 | 96 | 1008.2 |
| 20260506190053 | 43 | 231 | 3.0 | 11.0 | 0.02 | 0.58 | 0.56 | 96 | 1008.3 |
| 20260506184554 | 44 | 241 | 2.0 | 8.0 | 0.01 | 0.58 | 0.55 | 95 | 1008.1 |
| 20260506183108 | 44 | 233 | 4.0 | 10.0 | 0.02 | 0.58 | 0.55 | 96 | 1007.9 |
| 20260506181601 | 45 | 253 | 1.0 | 12.0 | 0.02 | 0.58 | 0.55 | 96 | 1007.7 |
| 20260506180115 | 44 | 227 | 1.0 | 7.0 | 0.02 | 0.57 | 0.54 | 96 | 1007.6 |
| 20260506174551 | 44 | 236 | 0.0 | 6.0 | 0.02 | 0.57 | 0.54 | 96 | 1007.3 |
| 20260506173119 | 44 | 238 | 0.0 | 7.0 | 0.01 | 0.56 | 0.52 | 95 | 1007.3 |
| 20260506171547 | 44 | 224 | 2.0 | 6.0 | 0.02 | 0.56 | 0.52 | 95 | 1007.1 |
| 20260506170050 | 44 | 243 | 2.0 | 5.0 | 0.01 | 0.55 | 0.52 | 95 | 1007.2 |
| 20260506164551 | 44 | 243 | 2.0 | 5.0 | 0.01 | 0.55 | 0.52 | 95 | 1007.2 |
| 20260506163056 | 44 | 0 | 1.0 | 5.0 | 0.02 | 0.55 | 0.52 | 95 | 1007.2 |
| 20260506161555 | 43 | 242 | 2.0 | 6.0 | 0.01 | 0.54 | 0.51 | 95 | 1007.3 |
| 20260506160050 | 43 | 233 | 1.0 | 7.0 | 0.01 | 0.54 | 0.51 | 95 | 1007.0 |
| 20260506154553 | 43 | 257 | 2.0 | 6.0 | 0.02 | 0.54 | 0.51 | 95 | 1007.0 |
| 20260506153049 | 44 | 237 | 0.0 | 5.0 | 0.02 | 0.52 | 0.50 | 95 | 1007.1 |
| 20260506151554 | 44 | 236 | 0.0 | 4.0 | 0.03 | 0.52 | 0.50 | 95 | 1007.1 |
| 20260506150058 | 43 | 0 | 1.0 | 7.0 | 0.04 | 0.52 | 0.50 | 95 | 1007.0 |
| 20260506144603 | 43 | 206 | 2.0 | 5.0 | 0.05 | 0.52 | 0.49 | 95 | 1006.8 |
| 20260506143052 | 43 | 244 | 1.0 | 3.0 | 0.05 | 0.51 | 0.48 | 95 | 1006.9 |
| 20260506141555 | 43 | 0 | 2.0 | 5.0 | 0.05 | 0.50 | 0.47 | 95 | 1006.5 |
| 20260506140055 | 43 | 243 | 1.0 | 5.0 | 0.06 | 0.49 | 0.46 | 95 | 1006.7 |
| 20260506134554 | 44 | 255 | 0.0 | 7.0 | 0.08 | 0.47 | 0.44 | 95 | 1006.6 |
| 20260506133101 | 44 | 0 | 0.0 | 5.0 | 0.10 | 0.46 | 0.43 | 95 | 1006.9 |
| 20260506131550 | 44 | 0 | 0.0 | 3.0 | 0.14 | 0.45 | 0.42 | 95 | 1006.8 |
| 20260506130053 | 44 | 228 | 0.0 | 2.0 | 0.15 | 0.43 | 0.40 | 95 | 1006.7 |
| 20260506124552 | 45 | 0 | 0.0 | 3.0 | 0.13 | 0.39 | 0.36 | 95 | 1006.8 |
| 20260506123056 | 45 | 225 | 1.0 | 7.0 | 0.11 | 0.36 | 0.33 | 95 | 1006.6 |
| 20260506121559 | 45 | 220 | 1.0 | 5.0 | 0.08 | 0.31 | 0.28 | 95 | 1006.4 |
| 20260506120051 | 45 | 243 | 0.0 | 5.0 | 0.08 | 0.28 | 0.25 | 94 | 1006.3 |
| 20260506114607 | 47 | 0 | 0.0 | 5.0 | 0.08 | 0.26 | 0.23 | 95 | 1006.2 |
| 20260506113057 | 47 | 219 | 1.0 | 3.0 | 0.09 | 0.25 | 0.22 | 95 | 1006.2 |
| 20260506111600 | 47 | 214 | 0.0 | 1.0 | 0.08 | 0.23 | 0.20 | 95 | 1006.1 |
| 20260506104557 | 46 | 0 | 0.0 | 1.0 | 0.07 | 0.17 | 0.14 | 95 | 1006.2 |
| 20260506103057 | 46 | 214 | 0.0 | 3.0 | 0.08 | 0.16 | 0.13 | 94 | 1006.3 |
| 20260506101552 | 46 | 165 | 0.0 | 1.0 | 0.09 | 0.15 | 0.12 | 94 | 1006.7 |
| 20260506100053 | 46 | 0 | 0.0 | 1.0 | 0.08 | 0.13 | 0.10 | 94 | 1006.5 |
| 20260506094611 | 46 | 245 | 0.0 | 3.0 | 0.06 | 0.13 | 0.07 | 94 | 1006.8 |
| 20260506093055 | 46 | 238 | 0.0 | 4.0 | 0.04 | 0.11 | 0.05 | 94 | 1006.5 |
| 20260506091553 | 46 | 238 | 2.0 | 6.0 | 0.03 | 0.09 | 0.03 | 93 | 1007.1 |
| 20260506090052 | 46 | 236 | 2.0 | 6.0 | 0.02 | 0.08 | 0.02 | 93 | 1007.5 |
| 20260506084556 | 47 | 216 | 0.0 | 3.0 | 0.01 | 0.07 | 0.01 | 93 | 1007.2 |
| 20260506083057 | 47 | 0 | 0.0 | 2.0 | 0.01 | 0.07 | 0.01 | 93 | 1006.9 |
| 20260506081552 | 47 | 0 | 0.0 | 4.0 | 0.00 | 0.06 | 0.00 | 93 | 1006.6 |
| 20260506080106 | 46 | 0 | 0.0 | 2.0 | 0.00 | 0.06 | 0.00 | 93 | 1006.8 |
| 20260506073109 | 46 | 0 | 0.0 | 3.0 | 0.00 | 0.06 | 0.00 | 93 | 1006.9 |
| 20260506071553 | 46 | 0 | 0.0 | 0.0 | 0.00 | 0.06 | 0.00 | 93 | 1007.1 |
| 20260506061611 | 46 | 0 | 0.0 | 2.0 | 0.00 | 0.06 | 0.00 | 92 | 1008.4 |
| 20260506044554 | 46 | 0 | 0.0 | 1.0 | 0.00 | 0.06 | 0.00 | 91 | 1009.1 |
| 20260506043102 | 46 | 0 | 0.0 | 3.0 | 0.00 | 0.06 | 0.00 | 91 | 1009.4 |
| 20260506041556 | 46 | 247 | 0.0 | 2.0 | 0.00 | 0.06 | 0.00 | 90 | 1009.3 |